Home > Weather > Charleroi > Past weeks

Flag for Belgium Weather for the Past 2 Weeks in Charleroi, Belgium

Now
37 °F

Partly cloudy.


Feels Like: 31 °F
Forecast: 36 / 41 °F
Wind: 9 mph from Northeast

Location: Charleroi / Gosselies

Current Time: Feb 13, 2016 at 8:51:02 PM

Latest Report: Feb 13, 2016 at 8:20 PM


Visibility: 2 mi

Pressure: 28.97 "Hg

Humidity: 93%

Dew point: 36 °F

Location of CharleroiLocation

Historic Weather in Charleroi — Graph

°F

Charleroi Temperature Yesterday

Maximum temperature yesterday: 39 °F (at 11:20 AM)
Minimum temperature yesterday: 34 °F (at 11:50 PM)
Average temperature yesterday: 37 °F

High & Low Weather Summary for the Past Weeks

 TemperatureHumidityPressure
High54 °F (Feb 6, 9:20 PM)100% (Jan 30, 7:50 AM)30.33 "Hg (Jan 30, 7:50 AM)
Low30 °F (Feb 13, 3:50 AM)54% (Feb 6, 9:20 PM)28.88 "Hg (Feb 9, 12:50 PM)
Average43 °F86%29.75 "Hg
* Reported Jan 29 7:20 PM — Feb 13 7:50 PM, Charleroi, Weather by CustomWeather, © 2016

Note: Actual official high and low records may vary slightly from our data, if they occured in-between our weather recording intervals... More about our weather records

Advertising

Charleroi Weather History for the Previous 24 Hours

 ConditionsComfort  
Time TempWeatherWind HumidityBarometerVisibility
7:50 PM
Sat, Feb 13
37 °FPartly cloudy.8 mph93%28.97 "Hg2 mi
7:20 PM37 °FPartly cloudy.10 mph93%28.97 "HgN/A
6:50 PM37 °FPartly cloudy.10 mph93%28.94 "Hg4 mi
6:20 PM37 °FPartly cloudy.10 mph93%28.97 "Hg4 mi
5:50 PM37 °FDrizzle. Broken clouds.10 mph93%28.97 "Hg4 mi
5:20 PM37 °FDrizzle. Broken clouds.12 mph93%28.97 "Hg4 mi
4:50 PM37 °FDrizzle. Broken clouds.12 mph93%28.97 "Hg4 mi
4:20 PM37 °FDrizzle. Broken clouds.12 mph93%28.97 "Hg4 mi
3:50 PM37 °FDrizzle. Broken clouds.12 mph93%29.00 "Hg4 mi
3:20 PM37 °FDrizzle. Broken clouds.10 mph93%29.00 "Hg4 mi
2:50 PM37 °FDrizzle. Fog.10 mph93%29.00 "Hg3 mi
2:20 PM37 °FDrizzle. Fog.9 mph93%29.03 "Hg2 mi
1:50 PM37 °FDrizzle. Fog.10 mph93%29.06 "Hg2 mi
1:20 PM37 °FDrizzle. Fog.9 mph93%29.09 "Hg2 mi
12:50 PM36 °FDrizzle. Fog.8 mph93%29.09 "Hg2 mi
12:20 PM36 °FLight rain. Fog.8 mph93%29.12 "Hg2 mi
11:50 AM36 °FLight rain. Fog.9 mph87%29.15 "Hg2 mi
11:20 AM36 °FBroken clouds.8 mph87%29.15 "Hg5 mi
10:50 AM36 °FBroken clouds.7 mph87%29.18 "Hg5 mi
10:20 AM34 °FBroken clouds.6 mph87%29.18 "Hg5 mi
9:50 AM34 °FBroken clouds.7 mph87%29.21 "Hg5 mi
9:20 AM32 °FBroken clouds.6 mph93%29.24 "Hg5 mi
8:50 AM32 °FPartly sunny.6 mph93%29.24 "Hg6 mi
8:20 AM32 °FScattered clouds.7 mph93%29.24 "Hg6 mi
7:50 AM30 °FPassing clouds.5 mph93%29.27 "Hg6 mi
7:20 AM32 °FPassing clouds.5 mph87%29.27 "HgN/A
6:50 AM32 °FPartly cloudy.5 mph87%29.30 "HgN/A
6:20 AM30 °FPartly cloudy.5 mph93%29.30 "HgN/A
5:50 AM32 °FPassing clouds.5 mph87%29.30 "HgN/A
5:20 AM30 °FPassing clouds.5 mph93%29.33 "HgN/A
4:50 AM30 °FPassing clouds.5 mph93%29.33 "HgN/A
4:20 AM30 °FClear.6 mph93%29.33 "Hg10 mi
3:50 AM30 °FClear.3 mph93%29.36 "Hg10 mi
3:20 AM32 °FClear.5 mph87%29.36 "Hg10 mi
2:50 AM32 °FClear.6 mph87%29.33 "Hg10 mi
2:20 AM32 °FClear.3 mph87%29.36 "Hg10 mi
1:50 AM32 °FClear.2 mph87%29.36 "Hg10 mi
1:20 AM32 °FClear.3 mph87%29.39 "Hg10 mi
12:50 AM32 °FClear.7 mph93%29.39 "Hg10 mi
12:20 AM34 °FClear.6 mph87%29.39 "Hg10 mi
11:50 PM
Fri, Feb 12
34 °FClear.7 mph87%29.36 "Hg10 mi
10:20 PM36 °FClear.5 mph81%29.36 "Hg10 mi
9:50 PM36 °FPassing clouds.6 mph81%29.36 "HgN/A
9:20 PM36 °FClear.7 mph81%29.36 "Hg10 mi
8:50 PM36 °FClear.7 mph87%29.36 "Hg10 mi
Weather by CustomWeather, © 2016

See weather overviewHow to use our weather pages